owner,sensor,date,latitude,longitude,sea_surface_height_above_sea_level,qcFlag 
TCOON,ioos:station:TCOON:524:1,2019-04-01T00:24:00Z,29.8672,-93.9310,1.767,1111122 
TCOON,ioos:station:TCOON:524:1,2019-04-01T01:24:00Z,29.8672,-93.9310,1.792,1111122 
TCOON,ioos:station:TCOON:524:1,2019-04-01T02:24:00Z,29.8672,-93.9310,1.752,1111122 
TCOON,ioos:station:TCOON:524:1,2019-04-01T03:24:00Z,29.8672,-93.9310,1.71,1111122 
TCOON,ioos:station:TCOON:524:1,2019-04-01T04:24:00Z,29.8672,-93.9310,1.731,1111122 
TCOON,ioos:station:TCOON:524:1,2019-04-01T05:24:00Z,29.8672,-93.9310,1.721,1111122 
TCOON,ioos:station:TCOON:524:1,2019-04-01T06:24:00Z,29.8672,-93.9310,1.783,1111122 
TCOON,ioos:station:TCOON:524:1,2019-04-01T07:24:00Z,29.8672,-93.9310,1.781,1111122 
TCOON,ioos:station:TCOON:524:1,2019-04-01T08:24:00Z,29.8672,-93.9310,1.795,1111122 
TCOON,ioos:station:TCOON:524:1,2019-04-01T09:24:00Z,29.8672,-93.9310,1.799,1111122 
TCOON,ioos:station:TCOON:524:1,2019-04-01T10:24:00Z,29.8672,-93.9310,1.759,1111122 
TCOON,ioos:station:TCOON:524:1,2019-04-01T11:24:00Z,29.8672,-93.9310,1.766,1111122 
TCOON,ioos:station:TCOON:524:1,2019-04-01T12:24:00Z,29.8672,-93.9310,1.741,1111122 
TCOON,ioos:station:TCOON:524:1,2019-04-01T13:24:00Z,29.8672,-93.9310,1.688,1111122 
TCOON,ioos:station:TCOON:524:1,2019-04-01T14:24:00Z,29.8672,-93.9310,1.675,1111122 
TCOON,ioos:station:TCOON:524:1,2019-04-01T15:30:00Z,29.8672,-93.9310,1.691,1111122 
TCOON,ioos:station:TCOON:524:1,2019-04-01T16:24:00Z,29.8672,-93.9310,1.719,1111122 
TCOON,ioos:station:TCOON:524:1,2019-04-01T17:24:00Z,29.8672,-93.9310,1.74,1111122 
TCOON,ioos:station:TCOON:524:1,2019-04-01T18:24:00Z,29.8672,-93.9310,1.763,1111122 
TCOON,ioos:station:TCOON:524:1,2019-04-01T19:24:00Z,29.8672,-93.9310,1.784,1111122 
TCOON,ioos:station:TCOON:524:1,2019-04-01T20:24:00Z,29.8672,-93.9310,1.888,1111122 
TCOON,ioos:station:TCOON:524:1,2019-04-01T21:24:00Z,29.8672,-93.9310,1.892,1111122 
TCOON,ioos:station:TCOON:524:1,2019-04-01T22:24:00Z,29.8672,-93.9310,1.874,1111122 
TCOON,ioos:station:TCOON:524:1,2019-04-01T23:24:00Z,29.8672,-93.9310,1.895,1111122 
TCOON,ioos:station:TCOON:524:1,2019-04-02T00:24:00Z,29.8672,-93.9310,1.871,1111122 
TCOON,ioos:station:TCOON:524:1,2019-04-02T01:24:00Z,29.8672,-93.9310,1.838,1111122 
TCOON,ioos:station:TCOON:524:1,2019-04-02T02:24:00Z,29.8672,-93.9310,1.814,1111122 
TCOON,ioos:station:TCOON:524:1,2019-04-02T03:24:00Z,29.8672,-93.9310,1.746,1111122 
TCOON,ioos:station:TCOON:524:1,2019-04-02T04:24:00Z,29.8672,-93.9310,1.772,1111122 
TCOON,ioos:station:TCOON:524:1,2019-04-02T05:48:00Z,29.8672,-93.9310,1.779,1111122 
TCOON,ioos:station:TCOON:524:1,2019-04-02T06:24:00Z,29.8672,-93.9310,1.783,1111122 
TCOON,ioos:station:TCOON:524:1,2019-04-02T07:24:00Z,29.8672,-93.9310,1.808,1111122 
TCOON,ioos:station:TCOON:524:1,2019-04-02T08:24:00Z,29.8672,-93.9310,1.803,1111122 
TCOON,ioos:station:TCOON:524:1,2019-04-02T09:24:00Z,29.8672,-93.9310,1.784,1111122 
TCOON,ioos:station:TCOON:524:1,2019-04-02T10:24:00Z,29.8672,-93.9310,1.782,1111122 
TCOON,ioos:station:TCOON:524:1,2019-04-02T11:24:00Z,29.8672,-93.9310,1.737,1111122 
TCOON,ioos:station:TCOON:524:1,2019-04-02T12:24:00Z,29.8672,-93.9310,1.686,1111122 
TCOON,ioos:station:TCOON:524:1,2019-04-02T13:24:00Z,29.8672,-93.9310,1.657,1111122 
TCOON,ioos:station:TCOON:524:1,2019-04-02T14:24:00Z,29.8672,-93.9310,1.702,1111122 
TCOON,ioos:station:TCOON:524:1,2019-04-02T15:30:00Z,29.8672,-93.9310,1.661,1111122 
TCOON,ioos:station:TCOON:524:1,2019-04-02T16:30:00Z,29.8672,-93.9310,1.68,1111122 
TCOON,ioos:station:TCOON:524:1,2019-04-02T17:30:00Z,29.8672,-93.9310,1.686,1111122 
TCOON,ioos:station:TCOON:524:1,2019-04-02T18:30:00Z,29.8672,-93.9310,1.738,1111122 
TCOON,ioos:station:TCOON:524:1,2019-04-02T19:24:00Z,29.8672,-93.9310,1.784,1111122 
TCOON,ioos:station:TCOON:524:1,2019-04-02T20:24:00Z,29.8672,-93.9310,1.864,1111122 
TCOON,ioos:station:TCOON:524:1,2019-04-02T21:24:00Z,29.8672,-93.9310,1.851,1111122 
TCOON,ioos:station:TCOON:524:1,2019-04-02T22:24:00Z,29.8672,-93.9310,1.862,1111122 
TCOON,ioos:station:TCOON:524:1,2019-04-02T23:24:00Z,29.8672,-93.9310,1.871,1111122 
TCOON,ioos:station:TCOON:524:1,2019-04-03T00:24:00Z,29.8672,-93.9310,1.873,1111122 
TCOON,ioos:station:TCOON:524:1,2019-04-03T01:24:00Z,29.8672,-93.9310,1.877,1111122 
TCOON,ioos:station:TCOON:524:1,2019-04-03T02:24:00Z,29.8672,-93.9310,1.843,1111122 
TCOON,ioos:station:TCOON:524:1,2019-04-03T03:24:00Z,29.8672,-93.9310,1.848,1111122 
TCOON,ioos:station:TCOON:524:1,2019-04-03T04:24:00Z,29.8672,-93.9310,1.807,1111122 
TCOON,ioos:station:TCOON:524:1,2019-04-03T05:24:00Z,29.8672,-93.9310,1.826,1111122 
TCOON,ioos:station:TCOON:524:1,2019-04-03T06:24:00Z,29.8672,-93.9310,1.833,1111122 
TCOON,ioos:station:TCOON:524:1,2019-04-03T07:24:00Z,29.8672,-93.9310,1.863,1111122 
TCOON,ioos:station:TCOON:524:1,2019-04-03T08:24:00Z,29.8672,-93.9310,1.897,1111122 
TCOON,ioos:station:TCOON:524:1,2019-04-03T09:24:00Z,29.8672,-93.9310,1.892,1111122 
TCOON,ioos:station:TCOON:524:1,2019-04-03T10:24:00Z,29.8672,-93.9310,1.891,1111122 
TCOON,ioos:station:TCOON:524:1,2019-04-03T11:24:00Z,29.8672,-93.9310,1.892,1111122 
TCOON,ioos:station:TCOON:524:1,2019-04-03T12:24:00Z,29.8672,-93.9310,1.851,1111122 
TCOON,ioos:station:TCOON:524:1,2019-04-03T13:24:00Z,29.8672,-93.9310,1.766,1111122 
TCOON,ioos:station:TCOON:524:1,2019-04-03T14:30:00Z,29.8672,-93.9310,1.652,1111122 
TCOON,ioos:station:TCOON:524:1,2019-04-03T15:30:00Z,29.8672,-93.9310,1.786,1111122 
TCOON,ioos:station:TCOON:524:1,2019-04-03T16:30:00Z,29.8672,-93.9310,1.774,1111122 
TCOON,ioos:station:TCOON:524:1,2019-04-03T17:30:00Z,29.8672,-93.9310,1.794,1111122 
TCOON,ioos:station:TCOON:524:1,2019-04-03T18:24:00Z,29.8672,-93.9310,1.792,1111122 
TCOON,ioos:station:TCOON:524:1,2019-04-03T19:24:00Z,29.8672,-93.9310,1.874,1111122 
TCOON,ioos:station:TCOON:524:1,2019-04-03T20:24:00Z,29.8672,-93.9310,1.867,1111122 
TCOON,ioos:station:TCOON:524:1,2019-04-03T21:24:00Z,29.8672,-93.9310,1.953,1111122 
TCOON,ioos:station:TCOON:524:1,2019-04-03T22:30:00Z,29.8672,-93.9310,1.955,1111122 
TCOON,ioos:station:TCOON:524:1,2019-04-03T23:24:00Z,29.8672,-93.9310,1.965,1111122 
TCOON,ioos:station:TCOON:524:1,2019-04-04T00:24:00Z,29.8672,-93.9310,1.977,1111122 
TCOON,ioos:station:TCOON:524:1,2019-04-04T01:24:00Z,29.8672,-93.9310,1.957,1111122 
TCOON,ioos:station:TCOON:524:1,2019-04-04T02:24:00Z,29.8672,-93.9310,1.976,1111122 
TCOON,ioos:station:TCOON:524:1,2019-04-04T03:24:00Z,29.8672,-93.9310,1.966,1111122 
TCOON,ioos:station:TCOON:524:1,2019-04-04T04:24:00Z,29.8672,-93.9310,1.941,1111122 
TCOON,ioos:station:TCOON:524:1,2019-04-04T05:24:00Z,29.8672,-93.9310,1.948,1111122 
TCOON,ioos:station:TCOON:524:1,2019-04-04T06:24:00Z,29.8672,-93.9310,1.968,1111122 
TCOON,ioos:station:TCOON:524:1,2019-04-04T07:24:00Z,29.8672,-93.9310,1.969,1111122 
TCOON,ioos:station:TCOON:524:1,2019-04-04T08:24:00Z,29.8672,-93.9310,2.057,1111122 
TCOON,ioos:station:TCOON:524:1,2019-04-04T09:24:00Z,29.8672,-93.9310,2.086,1111122 
TCOON,ioos:station:TCOON:524:1,2019-04-04T10:24:00Z,29.8672,-93.9310,2.082,1111122 
TCOON,ioos:station:TCOON:524:1,2019-04-04T11:24:00Z,29.8672,-93.9310,2.106,1111122 
TCOON,ioos:station:TCOON:524:1,2019-04-04T12:24:00Z,29.8672,-93.9310,2.112,1111122 
TCOON,ioos:station:TCOON:524:1,2019-04-04T13:24:00Z,29.8672,-93.9310,2.096,1111122 
TCOON,ioos:station:TCOON:524:1,2019-04-04T14:24:00Z,29.8672,-93.9310,2.051,1111122 
TCOON,ioos:station:TCOON:524:1,2019-04-04T15:24:00Z,29.8672,-93.9310,2.0,1111122 
TCOON,ioos:station:TCOON:524:1,2019-04-04T16:24:00Z,29.8672,-93.9310,1.984,1111122 
TCOON,ioos:station:TCOON:524:1,2019-04-04T17:24:00Z,29.8672,-93.9310,1.955,1111122 
TCOON,ioos:station:TCOON:524:1,2019-04-04T18:24:00Z,29.8672,-93.9310,1.934,1111122 
TCOON,ioos:station:TCOON:524:1,2019-04-04T19:24:00Z,29.8672,-93.9310,1.917,1111122 
TCOON,ioos:station:TCOON:524:1,2019-04-04T20:24:00Z,29.8672,-93.9310,1.985,1111122 
TCOON,ioos:station:TCOON:524:1,2019-04-04T21:24:00Z,29.8672,-93.9310,1.988,1111122 
TCOON,ioos:station:TCOON:524:1,2019-04-04T22:24:00Z,29.8672,-93.9310,2.019,1111122 
TCOON,ioos:station:TCOON:524:1,2019-04-04T23:24:00Z,29.8672,-93.9310,2.05,1111122 
TCOON,ioos:station:TCOON:524:1,2019-04-05T00:24:00Z,29.8672,-93.9310,2.054,1111122 
TCOON,ioos:station:TCOON:524:1,2019-04-05T01:24:00Z,29.8672,-93.9310,2.061,1111122 
TCOON,ioos:station:TCOON:524:1,2019-04-05T02:24:00Z,29.8672,-93.9310,1.998,1111122 
TCOON,ioos:station:TCOON:524:1,2019-04-05T03:24:00Z,29.8672,-93.9310,1.941,1111122 
TCOON,ioos:station:TCOON:524:1,2019-04-05T04:24:00Z,29.8672,-93.9310,1.885,1111122 
TCOON,ioos:station:TCOON:524:1,2019-04-05T05:24:00Z,29.8672,-93.9310,1.905,1111122 
TCOON,ioos:station:TCOON:524:1,2019-04-05T06:24:00Z,29.8672,-93.9310,1.914,1111122 
TCOON,ioos:station:TCOON:524:1,2019-04-05T07:24:00Z,29.8672,-93.9310,1.915,1111122 
TCOON,ioos:station:TCOON:524:1,2019-04-05T08:24:00Z,29.8672,-93.9310,1.944,1111122 
TCOON,ioos:station:TCOON:524:1,2019-04-05T09:24:00Z,29.8672,-93.9310,1.99,1111122 
TCOON,ioos:station:TCOON:524:1,2019-04-05T10:24:00Z,29.8672,-93.9310,2.022,1111122 
TCOON,ioos:station:TCOON:524:1,2019-04-05T11:24:00Z,29.8672,-93.9310,2.017,1111122 
TCOON,ioos:station:TCOON:524:1,2019-04-05T12:24:00Z,29.8672,-93.9310,2.008,1111122 
TCOON,ioos:station:TCOON:524:1,2019-04-05T13:24:00Z,29.8672,-93.9310,1.995,1111122 
TCOON,ioos:station:TCOON:524:1,2019-04-05T14:30:00Z,29.8672,-93.9310,1.947,1111122 
TCOON,ioos:station:TCOON:524:1,2019-04-05T15:24:00Z,29.8672,-93.9310,1.9,1111122 
TCOON,ioos:station:TCOON:524:1,2019-04-05T16:24:00Z,29.8672,-93.9310,1.865,1111122 
TCOON,ioos:station:TCOON:524:1,2019-04-05T17:24:00Z,29.8672,-93.9310,1.874,1111122 
TCOON,ioos:station:TCOON:524:1,2019-04-05T18:24:00Z,29.8672,-93.9310,1.901,1111122 
TCOON,ioos:station:TCOON:524:1,2019-04-05T19:24:00Z,29.8672,-93.9310,1.91,1111122 
TCOON,ioos:station:TCOON:524:1,2019-04-05T20:24:00Z,29.8672,-93.9310,1.935,1111122 
TCOON,ioos:station:TCOON:524:1,2019-04-05T21:24:00Z,29.8672,-93.9310,1.962,1111122 
TCOON,ioos:station:TCOON:524:1,2019-04-05T22:24:00Z,29.8672,-93.9310,1.976,1111122 
TCOON,ioos:station:TCOON:524:1,2019-04-05T23:24:00Z,29.8672,-93.9310,1.978,1111122 
TCOON,ioos:station:TCOON:524:1,2019-04-06T00:24:00Z,29.8672,-93.9310,1.964,1111122 
TCOON,ioos:station:TCOON:524:1,2019-04-06T01:24:00Z,29.8672,-93.9310,1.941,1111122 
TCOON,ioos:station:TCOON:524:1,2019-04-06T02:24:00Z,29.8672,-93.9310,1.899,1111122 
TCOON,ioos:station:TCOON:524:1,2019-04-06T03:24:00Z,29.8672,-93.9310,1.861,1111122 
TCOON,ioos:station:TCOON:524:1,2019-04-06T04:24:00Z,29.8672,-93.9310,1.832,1111122 
TCOON,ioos:station:TCOON:524:1,2019-04-06T05:24:00Z,29.8672,-93.9310,1.833,1111122 
TCOON,ioos:station:TCOON:524:1,2019-04-06T06:24:00Z,29.8672,-93.9310,1.852,1111122 
TCOON,ioos:station:TCOON:524:1,2019-04-06T07:24:00Z,29.8672,-93.9310,1.876,1111122 
TCOON,ioos:station:TCOON:524:1,2019-04-06T08:24:00Z,29.8672,-93.9310,1.91,1111122 
TCOON,ioos:station:TCOON:524:1,2019-04-06T09:24:00Z,29.8672,-93.9310,1.959,1111122 
TCOON,ioos:station:TCOON:524:1,2019-04-06T10:24:00Z,29.8672,-93.9310,2.016,1111122 
TCOON,ioos:station:TCOON:524:1,2019-04-06T11:24:00Z,29.8672,-93.9310,2.045,1111122 
TCOON,ioos:station:TCOON:524:1,2019-04-06T12:24:00Z,29.8672,-93.9310,2.038,1111122 
TCOON,ioos:station:TCOON:524:1,2019-04-06T13:24:00Z,29.8672,-93.9310,2.02,1111122 
TCOON,ioos:station:TCOON:524:1,2019-04-06T14:24:00Z,29.8672,-93.9310,2.01,1111122 
TCOON,ioos:station:TCOON:524:1,2019-04-06T15:24:00Z,29.8672,-93.9310,1.979,1111122 
TCOON,ioos:station:TCOON:524:1,2019-04-06T16:24:00Z,29.8672,-93.9310,1.942,1111122 
TCOON,ioos:station:TCOON:524:1,2019-04-06T17:24:00Z,29.8672,-93.9310,1.92,1111122 
TCOON,ioos:station:TCOON:524:1,2019-04-06T18:24:00Z,29.8672,-93.9310,1.925,1111122 
TCOON,ioos:station:TCOON:524:1,2019-04-06T19:30:00Z,29.8672,-93.9310,1.92,1111122 
TCOON,ioos:station:TCOON:524:1,2019-04-06T20:24:00Z,29.8672,-93.9310,1.958,1111122 
TCOON,ioos:station:TCOON:524:1,2019-04-06T21:24:00Z,29.8672,-93.9310,1.99,1111122 
TCOON,ioos:station:TCOON:524:1,2019-04-06T22:24:00Z,29.8672,-93.9310,1.958,1111122 
TCOON,ioos:station:TCOON:524:1,2019-04-06T23:24:00Z,29.8672,-93.9310,1.986,1111122 
TCOON,ioos:station:TCOON:524:1,2019-04-07T00:24:00Z,29.8672,-93.9310,1.866,1111122 
TCOON,ioos:station:TCOON:524:1,2019-04-07T01:24:00Z,29.8672,-93.9310,2.002,1111122 
TCOON,ioos:station:TCOON:524:1,2019-04-07T02:24:00Z,29.8672,-93.9310,1.904,1111122 
TCOON,ioos:station:TCOON:524:1,2019-04-07T03:24:00Z,29.8672,-93.9310,1.783,1111122 
TCOON,ioos:station:TCOON:524:1,2019-04-07T04:24:00Z,29.8672,-93.9310,1.818,1111122 
TCOON,ioos:station:TCOON:524:1,2019-04-07T05:24:00Z,29.8672,-93.9310,1.806,1111122 
TCOON,ioos:station:TCOON:524:1,2019-04-07T06:24:00Z,29.8672,-93.9310,1.805,1111122 
TCOON,ioos:station:TCOON:524:1,2019-04-07T07:24:00Z,29.8672,-93.9310,1.793,1111122 
TCOON,ioos:station:TCOON:524:1,2019-04-07T08:24:00Z,29.8672,-93.9310,1.829,1111122 
TCOON,ioos:station:TCOON:524:1,2019-04-07T09:24:00Z,29.8672,-93.9310,1.902,1111122 
TCOON,ioos:station:TCOON:524:1,2019-04-07T10:24:00Z,29.8672,-93.9310,1.993,1111122 
TCOON,ioos:station:TCOON:524:1,2019-04-07T11:24:00Z,29.8672,-93.9310,2.029,1111122 
TCOON,ioos:station:TCOON:524:1,2019-04-07T12:24:00Z,29.8672,-93.9310,2.018,1111122 
TCOON,ioos:station:TCOON:524:1,2019-04-07T13:24:00Z,29.8672,-93.9310,2.05,1111122 
TCOON,ioos:station:TCOON:524:1,2019-04-07T14:24:00Z,29.8672,-93.9310,2.065,1111122 
TCOON,ioos:station:TCOON:524:1,2019-04-07T15:24:00Z,29.8672,-93.9310,1.997,1111122 
TCOON,ioos:station:TCOON:524:1,2019-04-07T16:24:00Z,29.8672,-93.9310,1.991,1111122 
TCOON,ioos:station:TCOON:524:1,2019-04-07T17:24:00Z,29.8672,-93.9310,2.029,1111122 
TCOON,ioos:station:TCOON:524:1,2019-04-17T14:42:00Z,29.8672,-93.9310,1.79,11111222 
TCOON,ioos:station:TCOON:524:1,2019-04-17T15:24:00Z,29.8672,-93.9310,1.761,11111222 
TCOON,ioos:station:TCOON:524:1,2019-04-17T16:24:00Z,29.8672,-93.9310,1.792,11111222 
TCOON,ioos:station:TCOON:524:1,2019-04-17T17:24:00Z,29.8672,-93.9310,1.802,11111222 
TCOON,ioos:station:TCOON:524:1,2019-04-17T18:30:00Z,29.8672,-93.9310,1.86,11111222 
TCOON,ioos:station:TCOON:524:1,2019-04-17T19:24:00Z,29.8672,-93.9310,1.903,11111222 
TCOON,ioos:station:TCOON:524:1,2019-04-17T20:30:00Z,29.8672,-93.9310,1.958,11111222 
TCOON,ioos:station:TCOON:524:1,2019-04-17T21:24:00Z,29.8672,-93.9310,1.996,11111222 
TCOON,ioos:station:TCOON:524:1,2019-04-17T22:24:00Z,29.8672,-93.9310,1.981,11111222 
TCOON,ioos:station:TCOON:524:1,2019-04-17T23:24:00Z,29.8672,-93.9310,1.929,11111222 
TCOON,ioos:station:TCOON:524:1,2019-04-18T00:24:00Z,29.8672,-93.9310,1.918,11111222 
TCOON,ioos:station:TCOON:524:1,2019-04-18T01:24:00Z,29.8672,-93.9310,1.906,11111222 
TCOON,ioos:station:TCOON:524:1,2019-04-18T02:24:00Z,29.8672,-93.9310,1.869,11111222 
TCOON,ioos:station:TCOON:524:1,2019-04-18T03:24:00Z,29.8672,-93.9310,1.864,11111222 
TCOON,ioos:station:TCOON:524:1,2019-04-18T04:24:00Z,29.8672,-93.9310,1.873,11111222 
TCOON,ioos:station:TCOON:524:1,2019-04-18T05:24:00Z,29.8672,-93.9310,1.884,11111222 
TCOON,ioos:station:TCOON:524:1,2019-04-18T06:24:00Z,29.8672,-93.9310,1.993,11111222 
TCOON,ioos:station:TCOON:524:1,2019-04-18T07:24:00Z,29.8672,-93.9310,2.053,11111222 
TCOON,ioos:station:TCOON:524:1,2019-04-18T08:24:00Z,29.8672,-93.9310,2.155,11111222 
TCOON,ioos:station:TCOON:524:1,2019-04-18T09:24:00Z,29.8672,-93.9310,2.163,11111222 
TCOON,ioos:station:TCOON:524:1,2019-04-18T10:24:00Z,29.8672,-93.9310,2.145,11111222 
TCOON,ioos:station:TCOON:524:1,2019-04-18T11:24:00Z,29.8672,-93.9310,2.088,11111222 
TCOON,ioos:station:TCOON:524:1,2019-04-18T12:24:00Z,29.8672,-93.9310,2.096,11111222 
TCOON,ioos:station:TCOON:524:1,2019-04-18T13:24:00Z,29.8672,-93.9310,2.104,11111222 
TCOON,ioos:station:TCOON:524:1,2019-04-18T14:30:00Z,29.8672,-93.9310,1.924,11111222 
TCOON,ioos:station:TCOON:524:1,2019-04-18T15:30:00Z,29.8672,-93.9310,1.895,11111222 
TCOON,ioos:station:TCOON:524:1,2019-04-18T16:24:00Z,29.8672,-93.9310,1.827,11111222 
TCOON,ioos:station:TCOON:524:1,2019-04-18T17:24:00Z,29.8672,-93.9310,1.851,11111222 
TCOON,ioos:station:TCOON:524:1,2019-04-18T18:30:00Z,29.8672,-93.9310,1.872,11111222 
TCOON,ioos:station:TCOON:524:1,2019-04-18T19:30:00Z,29.8672,-93.9310,1.905,11111222 
TCOON,ioos:station:TCOON:524:1,2019-04-18T20:24:00Z,29.8672,-93.9310,2.022,11111222 
TCOON,ioos:station:TCOON:524:1,2019-04-18T21:24:00Z,29.8672,-93.9310,2.116,11111222 
TCOON,ioos:station:TCOON:524:1,2019-04-18T22:24:00Z,29.8672,-93.9310,1.991,11111222 
TCOON,ioos:station:TCOON:524:1,2019-04-18T23:24:00Z,29.8672,-93.9310,1.99,11111222 
TCOON,ioos:station:TCOON:524:1,2019-04-19T00:24:00Z,29.8672,-93.9310,1.993,11111222 
TCOON,ioos:station:TCOON:524:1,2019-04-19T01:24:00Z,29.8672,-93.9310,1.866,11111222 
TCOON,ioos:station:TCOON:524:1,2019-04-19T02:24:00Z,29.8672,-93.9310,1.702,11111222 
TCOON,ioos:station:TCOON:524:1,2019-04-19T03:24:00Z,29.8672,-93.9310,1.65,11111222 
TCOON,ioos:station:TCOON:524:1,2019-04-19T04:24:00Z,29.8672,-93.9310,1.678,11111222 
TCOON,ioos:station:TCOON:524:1,2019-04-19T05:24:00Z,29.8672,-93.9310,1.637,11111222 
TCOON,ioos:station:TCOON:524:1,2019-04-19T06:24:00Z,29.8672,-93.9310,1.617,11111222 
TCOON,ioos:station:TCOON:524:1,2019-04-19T07:24:00Z,29.8672,-93.9310,1.671,11111222 
TCOON,ioos:station:TCOON:524:1,2019-04-19T08:24:00Z,29.8672,-93.9310,1.648,11111222 
TCOON,ioos:station:TCOON:524:1,2019-04-19T09:24:00Z,29.8672,-93.9310,1.684,11111222 
TCOON,ioos:station:TCOON:524:1,2019-04-19T10:24:00Z,29.8672,-93.9310,1.783,11111222 
TCOON,ioos:station:TCOON:524:1,2019-04-19T11:24:00Z,29.8672,-93.9310,1.751,11111222 
TCOON,ioos:station:TCOON:524:1,2019-04-19T12:24:00Z,29.8672,-93.9310,1.743,11111222 
TCOON,ioos:station:TCOON:524:1,2019-04-19T13:30:00Z,29.8672,-93.9310,1.657,11111222 
TCOON,ioos:station:TCOON:524:1,2019-04-19T14:30:00Z,29.8672,-93.9310,1.577,11111222 
TCOON,ioos:station:TCOON:524:1,2019-04-19T15:24:00Z,29.8672,-93.9310,1.49,11111222 
TCOON,ioos:station:TCOON:524:1,2019-04-19T16:24:00Z,29.8672,-93.9310,1.41,11111222 
TCOON,ioos:station:TCOON:524:1,2019-04-19T17:30:00Z,29.8672,-93.9310,1.445,11111222 
TCOON,ioos:station:TCOON:524:1,2019-04-19T18:30:00Z,29.8672,-93.9310,1.411,11111222 
TCOON,ioos:station:TCOON:524:1,2019-04-19T19:30:00Z,29.8672,-93.9310,1.432,11111222 
TCOON,ioos:station:TCOON:524:1,2019-04-19T20:30:00Z,29.8672,-93.9310,1.381,11111222 
TCOON,ioos:station:TCOON:524:1,2019-04-19T21:30:00Z,29.8672,-93.9310,1.488,11111222 
TCOON,ioos:station:TCOON:524:1,2019-04-19T22:30:00Z,29.8672,-93.9310,1.483,11111222 
TCOON,ioos:station:TCOON:524:1,2019-04-19T23:24:00Z,29.8672,-93.9310,1.48,11111222 
TCOON,ioos:station:TCOON:524:1,2019-04-20T00:24:00Z,29.8672,-93.9310,1.422,11111222 
TCOON,ioos:station:TCOON:524:1,2019-04-20T01:24:00Z,29.8672,-93.9310,1.331,11111222 
TCOON,ioos:station:TCOON:524:1,2019-04-20T02:24:00Z,29.8672,-93.9310,1.259,11111222 
TCOON,ioos:station:TCOON:524:1,2019-04-20T03:24:00Z,29.8672,-93.9310,1.147,11111222 
TCOON,ioos:station:TCOON:524:1,2019-04-20T04:24:00Z,29.8672,-93.9310,1.127,11111222 
TCOON,ioos:station:TCOON:524:1,2019-04-20T05:24:00Z,29.8672,-93.9310,1.126,11111222 
TCOON,ioos:station:TCOON:524:1,2019-04-20T06:24:00Z,29.8672,-93.9310,1.142,11111222 
TCOON,ioos:station:TCOON:524:1,2019-04-20T07:24:00Z,29.8672,-93.9310,1.228,11111222 
TCOON,ioos:station:TCOON:524:1,2019-04-20T08:24:00Z,29.8672,-93.9310,1.334,11111222 
TCOON,ioos:station:TCOON:524:1,2019-04-20T09:24:00Z,29.8672,-93.9310,1.447,11111222 
TCOON,ioos:station:TCOON:524:1,2019-04-20T10:24:00Z,29.8672,-93.9310,1.54,11111222 
TCOON,ioos:station:TCOON:524:1,2019-04-20T11:24:00Z,29.8672,-93.9310,1.576,11111222 
TCOON,ioos:station:TCOON:524:1,2019-04-20T12:24:00Z,29.8672,-93.9310,1.599,11111222 
TCOON,ioos:station:TCOON:524:1,2019-04-20T13:24:00Z,29.8672,-93.9310,1.601,11111222 
TCOON,ioos:station:TCOON:524:1,2019-04-20T14:24:00Z,29.8672,-93.9310,1.609,11111222 
TCOON,ioos:station:TCOON:524:1,2019-04-20T15:24:00Z,29.8672,-93.9310,1.594,11111222 
TCOON,ioos:station:TCOON:524:1,2019-04-20T16:24:00Z,29.8672,-93.9310,1.54,11111222 
TCOON,ioos:station:TCOON:524:1,2019-04-20T17:24:00Z,29.8672,-93.9310,1.464,11111222 
TCOON,ioos:station:TCOON:524:1,2019-04-20T18:24:00Z,29.8672,-93.9310,1.54,11111222 
TCOON,ioos:station:TCOON:524:1,2019-04-20T19:24:00Z,29.8672,-93.9310,1.579,11111222 
TCOON,ioos:station:TCOON:524:1,2019-04-20T20:24:00Z,29.8672,-93.9310,1.591,11111222 
TCOON,ioos:station:TCOON:524:1,2019-04-20T21:24:00Z,29.8672,-93.9310,1.593,11111222 
TCOON,ioos:station:TCOON:524:1,2019-04-20T22:24:00Z,29.8672,-93.9310,1.684,11111222 
TCOON,ioos:station:TCOON:524:1,2019-04-20T23:24:00Z,29.8672,-93.9310,1.658,11111222 
TCOON,ioos:station:TCOON:524:1,2019-04-21T00:24:00Z,29.8672,-93.9310,1.641,11111222 
TCOON,ioos:station:TCOON:524:1,2019-04-21T01:24:00Z,29.8672,-93.9310,1.595,11111222 
TCOON,ioos:station:TCOON:524:1,2019-04-21T02:24:00Z,29.8672,-93.9310,1.5,11111222 
TCOON,ioos:station:TCOON:524:1,2019-04-21T03:24:00Z,29.8672,-93.9310,1.408,11111222 
TCOON,ioos:station:TCOON:524:1,2019-04-21T04:24:00Z,29.8672,-93.9310,1.352,11111222 
TCOON,ioos:station:TCOON:524:1,2019-04-21T05:24:00Z,29.8672,-93.9310,1.335,11111222 
TCOON,ioos:station:TCOON:524:1,2019-04-21T06:24:00Z,29.8672,-93.9310,1.33,11111222 
TCOON,ioos:station:TCOON:524:1,2019-04-21T07:24:00Z,29.8672,-93.9310,1.404,11111222 
TCOON,ioos:station:TCOON:524:1,2019-04-21T08:24:00Z,29.8672,-93.9310,1.468,11111222 
TCOON,ioos:station:TCOON:524:1,2019-04-21T09:24:00Z,29.8672,-93.9310,1.5,11111222 
TCOON,ioos:station:TCOON:524:1,2019-04-21T10:24:00Z,29.8672,-93.9310,1.614,11111222 
TCOON,ioos:station:TCOON:524:1,2019-04-21T11:24:00Z,29.8672,-93.9310,1.687,11111222 
TCOON,ioos:station:TCOON:524:1,2019-04-21T12:24:00Z,29.8672,-93.9310,1.658,11111222 
TCOON,ioos:station:TCOON:524:1,2019-04-21T13:24:00Z,29.8672,-93.9310,1.666,11111222 
TCOON,ioos:station:TCOON:524:1,2019-04-21T14:24:00Z,29.8672,-93.9310,1.731,11111222 
TCOON,ioos:station:TCOON:524:1,2019-04-21T15:30:00Z,29.8672,-93.9310,1.7,11111222 
TCOON,ioos:station:TCOON:524:1,2019-04-21T16:24:00Z,29.8672,-93.9310,1.692,11111222 
TCOON,ioos:station:TCOON:524:1,2019-04-21T17:24:00Z,29.8672,-93.9310,1.738,11111222 
TCOON,ioos:station:TCOON:524:1,2019-04-21T18:24:00Z,29.8672,-93.9310,1.708,11111222 
TCOON,ioos:station:TCOON:524:1,2019-04-21T19:24:00Z,29.8672,-93.9310,1.711,11111222 
TCOON,ioos:station:TCOON:524:1,2019-04-21T20:24:00Z,29.8672,-93.9310,1.731,11111222 
TCOON,ioos:station:TCOON:524:1,2019-04-21T21:30:00Z,29.8672,-93.9310,1.71,11111222 
TCOON,ioos:station:TCOON:524:1,2019-04-21T22:24:00Z,29.8672,-93.9310,1.788,11111222 
TCOON,ioos:station:TCOON:524:1,2019-04-21T23:24:00Z,29.8672,-93.9310,1.79,11111222 
TCOON,ioos:station:TCOON:524:1,2019-04-22T00:24:00Z,29.8672,-93.9310,1.774,11111222 
TCOON,ioos:station:TCOON:524:1,2019-04-22T01:24:00Z,29.8672,-93.9310,1.72,11111222 
TCOON,ioos:station:TCOON:524:1,2019-04-22T02:24:00Z,29.8672,-93.9310,1.644,11111222 
TCOON,ioos:station:TCOON:524:1,2019-04-22T03:24:00Z,29.8672,-93.9310,1.577,11111222 
TCOON,ioos:station:TCOON:524:1,2019-04-22T04:24:00Z,29.8672,-93.9310,1.529,11111222 
TCOON,ioos:station:TCOON:524:1,2019-04-22T05:24:00Z,29.8672,-93.9310,1.477,11111222 
TCOON,ioos:station:TCOON:524:1,2019-04-22T06:24:00Z,29.8672,-93.9310,1.468,11111222 
TCOON,ioos:station:TCOON:524:1,2019-04-22T07:24:00Z,29.8672,-93.9310,1.526,11111222 
TCOON,ioos:station:TCOON:524:1,2019-04-22T08:24:00Z,29.8672,-93.9310,1.535,11111222 
TCOON,ioos:station:TCOON:524:1,2019-04-22T09:24:00Z,29.8672,-93.9310,1.578,11111222 
TCOON,ioos:station:TCOON:524:1,2019-04-22T10:24:00Z,29.8672,-93.9310,1.617,11111222 
TCOON,ioos:station:TCOON:524:1,2019-04-22T11:24:00Z,29.8672,-93.9310,1.715,11111222 
TCOON,ioos:station:TCOON:524:1,2019-04-22T12:24:00Z,29.8672,-93.9310,1.762,11111222 
TCOON,ioos:station:TCOON:524:1,2019-04-22T13:30:00Z,29.8672,-93.9310,1.783,11111222 
TCOON,ioos:station:TCOON:524:1,2019-04-22T14:30:00Z,29.8672,-93.9310,1.83,11111222 